This is the latest recevied weather packets stored in our database for station/object KK6MIG-13. If no packets are shown the sender has not sent any weather packets the latest 1 day(s).
| Time | Temp. | Humidity | Pressure | Rain* | Wind** | Luminosity | Snow |
|---|---|---|---|---|---|---|---|
| 1778008510 | 15° C | 1% | 1015 hPa | 0 mm | 3.58 m/s, 275° | 816 W/m² | - |
| 1778008506 | 15° C | 1% | 1015.1 hPa | 0 mm | 3.58 m/s, 263° | 816 W/m² | - |
| 1778008501 | 15° C | 1% | 1015 hPa | 0 mm | 3.58 m/s, 276° | 816 W/m² | - |
| 1778008313 | 15° C | 1% | 1015 hPa | 0 mm | 3.58 m/s, 236° | 835 W/m² | - |
| 1778008253 | 15° C | 1% | 1015 hPa | 0 mm | 3.58 m/s, 257° | 835 W/m² | - |
| 1778008193 | 15° C | 1% | 1014.9 hPa | 0 mm | 3.58 m/s, 231° | 766 W/m² | - |
| 1778008133 | 14.44° C | 1% | 1014.9 hPa | 0 mm | 3.58 m/s, 308° | 766 W/m² | - |
| 1778008073 | 14.44° C | 1% | 1014.9 hPa | 0 mm | 3.58 m/s, 238° | 766 W/m² | - |
| 1778008013 | 14.44° C | 1% | 1014.9 hPa | 0 mm | 3.58 m/s, 274° | 742 W/m² | - |
| 1778007954 | 14.44° C | 1% | 1014.9 hPa | 0 mm | 3.58 m/s, 266° | 976 W/m² | - |
| 1778007893 | 14.44° C | 1% | 1014.9 hPa | 0 mm | 3.58 m/s, 249° | 976 W/m² | - |
| 1778007837 | 14.44° C | 1% | 1014.8 hPa | 0 mm | 3.58 m/s, 246° | 545 W/m² | - |
| 1778007766 | 14.44° C | 1% | 1014.8 hPa | 0 mm | 3.58 m/s, 265° | 545 W/m² | - |
| 1778007707 | 14.44° C | 1% | 1014.8 hPa | 0 mm | 3.58 m/s, 278° | 545 W/m² | - |
| 1778007656 | 14.44° C | 1% | 1014.8 hPa | 0 mm | 3.58 m/s, 273° | 545 W/m² | - |
| 1778007652 | 14.44° C | 1% | 1014.8 hPa | 0 mm | 3.58 m/s, 237° | 545 W/m² | - |
| 1778007526 | 14.44° C | 1% | 1014.8 hPa | 0 mm | 3.58 m/s, 300° | 545 W/m² | - |
| 1778007465 | 14.44° C | 1% | 1014.8 hPa | 0 mm | 4.02 m/s, 260° | 545 W/m² | - |
| 1778007405 | 14.44° C | 1% | 1014.8 hPa | 0 mm | 4.02 m/s, 311° | 545 W/m² | - |
| 1778007345 | 14.44° C | 1% | 1014.8 hPa | 0 mm | 4.02 m/s, 242° | 545 W/m² | - |
| 1778007283 | 14.44° C | 1% | 1014.8 hPa | 0 mm | 4.02 m/s, 281° | 475 W/m² | - |
| 1778007231 | 14.44° C | 1% | 1014.8 hPa | 0 mm | 4.02 m/s, 283° | 431 W/m² | - |
| 1778007227 | 14.44° C | 1% | 1014.8 hPa | 0 mm | 4.02 m/s, 267° | 462 W/m² | - |
| 1778007104 | 14.44° C | 1% | 1014.8 hPa | 0 mm | 4.02 m/s, 277° | 457 W/m² | - |
| 1778007043 | 14.44° C | 1% | 1014.8 hPa | 0 mm | 4.02 m/s, 267° | 469 W/m² | - |
* Rain latest hour (hover to see other rain measurements)
** Current wind speed in m/s (hover to see current wind gust speed)